Find Starlink 30331

NORAD ID: 57740 Int'l Des: 2023-131 Owner: SPXS Country: US Constellation: starlink operational
LEOCIRCULAR

リアルタイム位置

3D地球を読み込み中...

Starlink 30331について

説明を読み込み中...

次回通過

Passes for default location (London). Set your location on the main map for personalized predictions.

高度履歴

Loading altitude history...

軌道要素

1 57740U 23131J 26133.21940856 -.00000083 00000-0 65041-5 0 9996
2 57740 43.0048 94.9715 0001384 280.1309 79.9387 15.27575174150641
Epoch: May 13, 2026 • Age: 7 hours

現在のステータス

高度 486.7 km
速度 7.63 km/s
衛星直下点 40.95°N, 154.28°E
打ち上げ日 Sep 1, 2023
運用期間 2.6 years
タイプ internet

技術仕様

分類 Payload
質量 730.00 kg
乾燥質量 700.00 kg
総質量 730.00 kg
長さ 0.30 m
直径 4.10 m
スパン 29.00 m
形状 Box + pan
製造者 SPXS
バスタイプ Starlink V2M
フェーズステータス In Orbit
所有者/国 SPXS/US

Most Searched